Weather History for Worcester, MA

Change the Weather History Date:

Wednesday, September 10, 2014

  Actual Average Record
Temperature  
Mean Temperature 62 °F 63 °F  
Max Temperature 69 °F 72 °F 91 °F (1931)
Min Temperature 55 °F 55 °F 35 °F (1938)
Degree Days  
Heating Degree Days 3 3  
Month to date heating degree days 10 25  
Since 1 July heating degree days 30 64  
Cooling Degree Days 0 2  
Month to date cooling degree days 52 24  
Year to date cooling degree days 414 450  
Growing Degree Days 12 (Base 50)    
Moisture  
Dew Point 55 °F    
Average Humidity 82    
Maximum Humidity 100    
Minimum Humidity 63    
Precipitation  
Precipitation 0.00 in 0.12 in 2.35 in (1999)
Month to date precipitation 1.07 1.14  
Year to date precipitation 36.10 32.50  
Sea Level Pressure  
Sea Level Pressure 30.14 in    
Wind  
Wind Speed 5 mph (NE)    
Max Wind Speed 9 mph    
Max Gust Speed 14 mph    
Visibility 6 miles    
Events Fog    
T = Trace of Precipitation, MM = Missing Value Source: NWS Daily Summary

Daily Weather History Graph

Daily Weather History Graph

Search for Another Location

Airport:

Trip Planner

Search our weather history database for the weather conditions in past years. The results will help you decide how hot, cold, wet, or windy it might be!

Date:

Astronomy

Sep. 10, 2014 Rise Set
Actual Time 6:22 AM EDT 7:05 PM EDT
Civil Twilight 5:53 AM EDT 7:34 PM EDT
Nautical Twilight 5:20 AM EDT 8:07 PM EDT
Astronomical Twilight 4:45 AM EDT 8:42 PM EDT
Moon 7:59 PM EDT (9/10) 8:08 AM EDT (9/10)
Length of Visible Light 13h 40m
Length of Day
12h 43m
Waning Gibbous, 96% of the Moon is Illuminated
Sep 10
Waning Gibbous
Sep 15
Last Quarter
Sep 24
New
Oct 1
First Quarter
Oct 8
Full

Hourly Weather History & Observations

Time (EDT) Temp. Dew Point Humidity Pressure Visibility Wind Dir Wind Speed Gust Speed Precip Events Conditions
12:40 AM 55.9 °F 53.1 °F 90% 30.21 in 10.0 mi NNE 5.8 mph - N/A   Overcast
12:54 AM 55.9 °F 54.0 °F 93% 30.20 in 10.0 mi NNE 6.9 mph - N/A   Overcast
1:47 AM 55.4 °F 53.6 °F 94% 30.18 in 1.8 mi NE 5.8 mph - N/A   Overcast
1:54 AM 55.0 °F 55.0 °F 100% 30.18 in 1.0 mi NE 5.8 mph - N/A   Mist
2:06 AM 55.0 °F 55.0 °F 100% 30.17 in 0.8 mi NE 4.6 mph - N/A   Mist
2:39 AM 55.9 °F 55.0 °F 97% 30.17 in 0.2 mi NNE 6.9 mph - N/A Fog Fog
2:54 AM 55.9 °F 55.0 °F 97% 30.17 in 0.2 mi NNE 6.9 mph - N/A Fog Fog
3:41 AM 55.9 °F 55.0 °F 97% 30.17 in 0.2 mi NE 3.5 mph - N/A Fog Fog
3:54 AM 55.9 °F 55.0 °F 97% 30.17 in 0.2 mi NNE 4.6 mph - N/A Fog Fog
4:41 AM 55.9 °F 55.0 °F 97% 30.18 in 0.2 mi North 8.1 mph - N/A Fog Fog
4:52 AM 55.4 °F 55.4 °F 100% 30.18 in 0.5 mi North 6.9 mph - N/A Fog Fog
4:54 AM 55.9 °F 55.0 °F 97% 30.18 in 0.5 mi North 6.9 mph - N/A Fog Fog
5:05 AM 55.9 °F 55.0 °F 97% 30.17 in 1.5 mi NNE 5.8 mph - N/A   Overcast
5:22 AM 55.9 °F 55.0 °F 97% 30.18 in 0.8 mi North 6.9 mph - N/A   Mist
5:32 AM 55.9 °F 55.0 °F 97% 30.18 in 1.0 mi NNE 4.6 mph - N/A   Mist
5:54 AM 55.9 °F 55.0 °F 97% 30.18 in 2.0 mi NNE 9.2 mph - N/A   Overcast
6:01 AM 55.9 °F 55.0 °F 97% 30.18 in 1.8 mi NNE 6.9 mph - N/A   Overcast
6:31 AM 55.0 °F 55.0 °F 100% 30.18 in 3.0 mi NNE 6.9 mph - N/A   Overcast
6:54 AM 55.9 °F 55.0 °F 97% 30.18 in 1.5 mi NE 5.8 mph - N/A   Overcast
7:21 AM 55.9 °F 55.0 °F 97% 30.18 in 10.0 mi NNE 6.9 mph - N/A   Overcast
7:54 AM 55.9 °F 55.0 °F 97% 30.17 in 10.0 mi NE 4.6 mph - N/A   Overcast
8:54 AM 55.9 °F 55.0 °F 97% 30.17 in 6.0 mi NE 6.9 mph - N/A   Overcast
9:39 AM 57.0 °F 55.0 °F 93% 30.17 in 10.0 mi NNE 5.8 mph - N/A   Overcast
9:54 AM 57.9 °F 54.0 °F 87% 30.19 in 10.0 mi NNE 4.6 mph - N/A   Overcast
10:54 AM 59.0 °F 55.0 °F 87% 30.19 in 10.0 mi East 4.6 mph - N/A   Overcast
11:04 AM 59.0 °F 55.0 °F 87% 30.18 in 10.0 mi NNE 4.6 mph - N/A   Overcast
11:34 AM 61.0 °F 55.0 °F 81% 30.17 in 10.0 mi ENE 6.9 mph - N/A   Overcast
11:54 AM 61.0 °F 54.0 °F 78% 30.17 in 10.0 mi ENE 5.8 mph - N/A   Overcast
12:01 PM 62.1 °F 54.0 °F 75% 30.17 in 10.0 mi NNE 4.6 mph - N/A   Overcast
12:54 PM 64.0 °F 54.0 °F 70% 30.16 in 10.0 mi NE 6.9 mph - N/A   Mostly Cloudy
1:54 PM 66.0 °F 54.0 °F 65% 30.14 in 10.0 mi Variable 5.8 mph - N/A   Mostly Cloudy
2:54 PM 66.9 °F 53.1 °F 61% 30.12 in 10.0 mi East 5.8 mph - N/A   Mostly Cloudy
3:05 PM 66.9 °F 53.1 °F 61% 30.11 in 10.0 mi Variable 4.6 mph - N/A   Partly Cloudy
3:54 PM 66.9 °F 53.1 °F 61% 30.10 in 10.0 mi ESE 5.8 mph - N/A   Mostly Cloudy
4:54 PM 68.0 °F 55.0 °F 63% 30.10 in 10.0 mi NNE 3.5 mph - N/A   Clear
5:54 PM 66.9 °F 55.0 °F 66% 30.10 in 10.0 mi NNE 4.6 mph - N/A   Clear
6:54 PM 64.0 °F 55.9 °F 75% 30.08 in 10.0 mi ENE 4.6 mph - N/A   Clear
7:54 PM 62.1 °F 55.9 °F 80% 30.09 in 10.0 mi ENE 3.5 mph - N/A   Clear
8:54 PM 61.0 °F 57.0 °F 87% 30.09 in 10.0 mi Calm Calm - N/A   Clear
9:36 PM 61.0 °F 57.0 °F 87% 30.08 in 9.0 mi Calm Calm - N/A   Scattered Clouds
9:45 PM 60.1 °F 57.0 °F 90% 30.07 in 10.0 mi Calm Calm - N/A   Mostly Cloudy
9:52 PM 60.8 °F 57.2 °F 88% 30.08 in 10.0 mi Calm Calm - N/A   Mostly Cloudy
9:54 PM 60.1 °F 57.0 °F 90% 30.08 in 10.0 mi East 3.5 mph - N/A   Mostly Cloudy
10:43 PM 60.1 °F 57.9 °F 93% 30.07 in 10.0 mi East 3.5 mph - N/A   Overcast
10:54 PM 59.0 °F 57.9 °F 96% 30.07 in 7.0 mi ESE 3.5 mph - N/A   Overcast
11:16 PM 59.0 °F 57.9 °F 96% 30.06 in 2.5 mi SE 5.8 mph - N/A   Overcast
11:25 PM 59.0 °F 59.0 °F 100% 30.07 in 1.2 mi SSE 6.9 mph - N/A   Overcast
11:54 PM 59.0 °F 57.9 °F 96% 30.07 in 1.0 mi SSE 6.9 mph - N/A   Mist